DW4321 Weather Reports


time (UTC)temp
C
wind
direction
speed
KPH
gust
KPH
rain 1hr
cm
rain 24hr
cm
rain mn
cm
humidity
%
barometer
mb
20260509074546 9 0 0.0 3.2 0.00 0.10 0.00 89 1010.1
20260509073051 9 0 0.0 1.6 0.00 0.10 0.00 89 1010.1
20260509071555 9 0 0.0 1.6 0.00 0.10 0.00 88 1010.1
20260509070045 9 0 0.0 1.6 0.00 0.10 0.00 88 1010.2
20260509064547 9 0 0.0 0.0 0.00 0.10 0.00 87 1010.7
20260509063044 9 0 0.0 3.2 0.00 0.10 0.00 87 1011.0
20260509061548 9 0 0.0 1.6 0.00 0.10 0.00 87 1011.2
20260509054602 10 0 0.0 0.0 0.00 0.10 0.00 87 1011.4
20260509053043 10 0 0.0 0.0 0.00 0.10 0.00 87 1011.5
20260509051541 10 0 0.0 1.6 0.00 0.10 0.00 86 1011.9
20260509050051 10 0 0.0 1.6 0.00 0.10 0.00 86 1012.2
20260509044546 10 0 0.0 0.0 0.00 0.10 0.00 85 1012.2
20260509043048 10 0 0.0 0.0 0.00 0.10 0.00 85 1012.0
20260509041543 10 0 0.0 0.0 0.00 0.10 0.00 85 1012.0
20260509040052 10 0 0.0 0.0 0.00 0.10 0.00 84 1012.2
20260509034555 10 0 0.0 1.6 0.00 0.10 0.10 83 1012.4
20260509033039 10 0 0.0 1.6 0.00 0.10 0.10 83 1012.3
20260509031557 10 0 0.0 0.0 0.00 0.10 0.10 82 1012.1
20260509030043 10 0 0.0 0.0 0.00 0.10 0.10 81 1012.0
20260509024542 10 0 0.0 1.6 0.00 0.13 0.10 81 1012.2
20260509023053 10 0 0.0 0.0 0.00 0.13 0.10 80 1012.3
20260509021545 10 0 0.0 1.6 0.00 0.13 0.10 79 1012.4
20260509020042 11 0 0.0 1.6 0.00 0.13 0.10 77 1012.1
20260509014545 11 157 1.6 9.7 0.00 0.13 0.10 75 1011.7
20260509013106 11 0 0.0 12.9 0.00 0.13 0.10 72 1012.1
20260509011541 11 0 0.0 6.4 0.00 0.13 0.10 70 1012.0
20260509010042 12 257 0.0 3.2 0.00 0.13 0.10 69 1011.6
20260509004541 12 255 1.6 9.7 0.00 0.13 0.10 67 1011.3
20260509003040 12 0 0.0 14.5 0.00 0.13 0.10 67 1011.5
20260509001546 12 280 3.2 14.5 0.00 0.13 0.10 66 1011.4
20260509000043 12 0 1.6 12.9 0.00 0.13 0.10 67 1011.3
20260508234542 12 244 1.6 20.9 0.00 0.13 0.10 67 1011.2
20260508233045 12 242 1.6 20.9 0.00 0.13 0.10 65 1011.1
20260508231547 13 261 4.8 24.1 0.00 0.13 0.10 66 1011.1
20260508230052 13 243 6.4 20.9 0.00 0.13 0.10 66 1010.8
20260508224600 13 0 11.3 24.1 0.00 0.13 0.10 66 1010.7
20260508223044 13 161 1.6 19.3 0.00 0.13 0.10 68 1010.7
20260508221554 13 0 4.8 16.1 0.00 0.13 0.10 72 1010.9
20260508220048 12 262 1.6 8.0 0.00 0.13 0.10 78 1011.1
20260508214541 11 0 0.0 8.0 0.00 0.13 0.10 79 1011.1
20260508213056 11 284 0.0 6.4 0.05 0.13 0.10 79 1011.0
20260508211545 11 285 3.2 9.7 0.05 0.13 0.10 80 1010.9
20260508210043 11 0 0.0 11.3 0.05 0.13 0.10 80 1011.2
20260508204543 11 317 1.6 24.1 0.05 0.13 0.10 77 1011.4
20260508203045 13 230 14.5 38.6 0.00 0.08 0.05 64 1011.7
20260508201547 14 177 6.4 24.1 0.00 0.08 0.05 55 1010.7
20260508200052 14 246 1.6 9.7 0.00 0.08 0.05 60 1010.9
20260508194546 13 347 0.0 3.2 0.00 0.08 0.05 63 1010.9
20260508193115 13 346 0.0 4.8 0.03 0.08 0.05 62 1011.0
20260508191542 13 0 0.0 6.4 0.03 0.08 0.05 61 1010.9
20260508190046 13 346 1.6 14.5 0.03 0.08 0.05 62 1010.9
20260508184609 13 16 3.2 11.3 0.03 0.08 0.05 68 1011.1
20260508183046 13 30 6.4 16.1 0.00 0.05 0.03 59 1011.6
20260508181542 14 337 3.2 16.1 0.00 0.05 0.03 55 1011.2
20260508180053 14 315 9.7 25.7 0.03 0.05 0.03 54 1011.5
20260508174557 13 269 8.0 24.1 0.03 0.05 0.03 61 1011.5
20260508173043 12 323 8.0 19.3 0.03 0.05 0.03 66 1011.9
20260508171610 13 328 11.3 27.4 0.03 0.05 0.03 62 1012.1
20260508170046 13 314 6.4 20.9 0.00 0.03 0.00 52 1012.0
20260508164544 13 5 8.0 20.9 0.00 0.03 0.00 51 1011.9
20260508163041 14 272 8.0 20.9 0.00 0.03 0.00 50 1012.1
20260508161551 13 296 6.4 22.5 0.00 0.03 0.00 51 1012.1
20260508160048 14 267 6.4 22.5 0.00 0.03 0.00 51 1012.2
20260508154545 14 245 9.7 29.0 0.00 0.03 0.00 52 1012.2
20260508153047 13 257 8.0 29.0 0.00 0.03 0.00 52 1012.1
20260508151553 13 261 14.5 33.8 0.00 0.03 0.00 51 1012.1
20260508150042 13 244 9.7 37.0 0.00 0.03 0.00 53 1011.9
20260508144543 13 246 8.0 38.6 0.00 0.03 0.00 53 1011.9
20260508143045 12 286 9.7 24.1 0.00 0.03 0.00 54 1011.9
20260508141545 12 264 4.8 19.3 0.00 0.03 0.00 57 1012.1
20260508140049 11 187 3.2 14.5 0.00 0.03 0.00 59 1012.3
20260508134551 10 188 3.2 20.9 0.00 0.03 0.00 61 1012.3
20260508133100 10 160 6.4 14.5 0.00 0.03 0.00 65 1012.5
20260508131548 9 191 3.2 19.3 0.00 0.03 0.00 67 1012.7
20260508130044 8 169 1.6 19.3 0.00 0.03 0.00 70 1012.9
20260508124543 7 173 0.0 16.1 0.00 0.03 0.00 73 1012.8
20260508123052 6 183 0.0 3.2 0.00 0.03 0.00 77 1012.8
20260508121541 5 0 0.0 1.6 0.00 0.03 0.00 78 1012.8
20260508120053 5 0 0.0 9.7 0.00 0.03 0.00 78 1012.7
20260508114547 5 161 1.6 8.0 0.00 0.03 0.00 82 1013.0
20260508113054 4 0 0.0 1.6 0.00 0.03 0.00 84 1013.2
20260508111543 3 0 0.0 1.6 0.00 0.03 0.00 86 1013.1
20260508110044 3 0 0.0 1.6 0.00 0.03 0.00 86 1013.0
20260508104539 3 0 0.0 0.0 0.00 0.03 0.00 86 1012.9
20260508103045 3 0 0.0 1.6 0.00 0.03 0.00 87 1012.6
20260508101548 2 0 0.0 1.6 0.00 0.03 0.00 87 1012.5
20260508100044 2 0 0.0 1.6 0.00 0.03 0.00 86 1012.3
20260508094542 2 0 0.0 1.6 0.00 0.03 0.00 86 1012.3
20260508093043 2 0 0.0 1.6 0.00 0.03 0.00 86 1012.1
20260508091605 3 0 0.0 1.6 0.00 0.03 0.00 85 1012.2
20260508090054 3 0 0.0 0.0 0.00 0.03 0.00 85 1012.1
20260508084543 3 0 0.0 1.6 0.00 0.03 0.00 85 1012.1
20260508083043 3 0 0.0 1.6 0.00 0.03 0.00 86 1012.2
20260508081546 3 0 0.0 0.0 0.00 0.03 0.00 87 1012.3
20260508080044 3 0 0.0 0.0 0.00 0.03 0.00 86 1012.2